Location: Bli��� Lhota
(48.7570°N, 14.0120°E)
Time: 02:41:55
(UTC+00:00)

Resurs 01 Rocket - Pass Details

Date: 18 September 2020
Orbit: 633 x 645 km, 98.0° (Epoch: 24 October)

Event Time Altitude Azimuth Distance (km) Brightness Sun altitude
Exits shadow 19:19:15 57° 118° (ESE) 760 1.6 -21.2°
Maximum altitude 19:19:53 66° 73° (ENE) 708 1.6 -21.3°
Drops below altitude 10° 19:24:19 10° 351° (N) 2,053 4.7 -22.0°
Sets 19:26:33 0° 349° (N) 2,967 5.7 -22.3°
